Theta_e
298 294 290 290 292 292 291 289 288 290 292 291 291 292 293 296 296 296 296 297 298 299 302 304 306 309 309 310 311 313 307 313 330 329 326 326 326 328 330 332 332 332 331 331
295 289 291 292 292 291 290 288 288 290 291 291 291 291 294 295 295 296 296 297 298 299 299 300 303 305 306 307 309 311 311 311 326 330 328 328 327 328 328 330 332 332 332 331
291 290 292 292 290 289 289 288 287 286 290 292 291 290 291 295 296 296 297 297 298 297 297 298 299 301 303 303 305 310 313 312 324 330 328 327 327 327 325 326 327 330 332 331
290 292 290 290 288 290 286 290 288 287 288 285 291 282 290 292 292 293 295 295 297 297 297 296 297 298 300 301 303 308 313 315 322 331 327 325 323 321 324 326 328 329 330 329
288 289 289 288 288 291 287 290 289 288 288 285 287 285 289 291 288 290 293 295 296 295 295 295 296 297 299 302 304 308 317 318 327 330 327 325 324 325 326 328 327 328 327 327
289 293 292 290 291 291 291 289 288 288 287 282 285 284 285 286 288 290 293 294 293 294 294 295 297 298 300 305 308 313 318 321 328 327 326 325 324 324 323 319 315 315 316 317
287 287 291 292 289 291 290 287 283 281 281 280 285 283 286 289 291 291 292 293 292 293 293 294 295 295 297 303 314 318 319 321 322 320 320 319 318 317 316 315 314 314 313 313
285 282 287 291 289 288 287 287 282 276 278 280 285 281 286 291 293 294 294 294 293 293 294 293 294 295 296 299 306 309 310 309 310 310 310 311 311 311 311 309 311 312 312 313
283 282 289 290 292 291 287 285 289 282 280 278 283 285 290 292 291 292 292 292 292 291 293 293 293 294 295 296 299 304 305 307 308 308 307 306 306 305 305 305 305 305 306 308
286 281 286 288 291 291 289 290 283 284 276 275 280 281 283 285 287 289 290 291 292 293 293 292 292 292 295 295 295 297 300 301 303 304 304 303 302 303 303 302 300 300 301 302
288 286 283 286 286 285 286 285 285 285 283 277 275 281 287 286 288 288 290 291 291 291 293 293 291 292 293 295 294 294 293 294 296 298 298 298 298 298 298 297 297 297 297 298
288 286 282 283 287 288 288 285 286 281 278 281 279 280 288 288 290 290 290 291 292 292 293 293 292 291 291 291 293 292 292 292 292 294 294 294 295 294 294 294 295 296 296 296
288 284 279 279 284 286 285 286 286 285 284 279 277 281 289 289 290 290 290 291 291 291 291 292 291 291 290 291 292 292 292 291 292 292 292 292 292 292 293 293 294 295 295 295
289 284 282 280 281 285 281 284 284 284 280 280 280 282 286 287 287 289 289 291 291 290 289 290 290 290 291 291 292 291 291 291 291 291 291 291 291 292 293 293 293 293 294 293
286 280 281 281 282 282 283 281 282 281 283 279 282 282 286 287 286 288 289 290 289 288 288 288 288 289 289 290 290 291 291 292 292 291 291 291 292 292 292 292 292 292 292 293
283 278 278 275 278 279 278 281 282 282 283 283 284 283 288 288 288 288 289 288 288 288 288 288 288 288 288 288 289 289 290 290 291 290 289 290 290 290 290 291 291 291 291 292
281 277 277 276 275 276 275 277 280 281 284 284 281 285 288 286 286 287 287 287 287 287 287 287 288 288 288 288 289 288 289 290 289 289 289 289 290 290 290 290 290 290 290 291
278 279 278 275 273 271 279 282 283 282 284 287 285 286 287 287 287 287 288 287 287 287 287 288 288 288 289 289 289 289 289 289 288 288 287 287 289 289 289 289 289 289 289 289
283 279 273 274 274 278 277 278 281 281 281 287 287 287 287 287 287 286 288 289 288 288 289 289 290 291 290 289 288 288 287 287 286 284 284 285 286 287 288 288 288 288 289 288
281 282 280 272 274 274 278 283 288 287 278 288 289 287 286 286 281 287 289 288 288 289 289 289 289 289 286 284 288 285 283 282 280 281 282 283 284 285 285 286 286 287 287 286
277 277 276 275 275 279 282 285 288 277 280 289 289 288 287 284 288 290 290 289 290 290 290 289 288 285 283 282 284 282 281 278 279 280 281 281 281 282 284 285 285 285 286 286
276 276 275 276 274 273 285 284 281 285 288 289 289 289 288 289 289 289 289 289 289 289 290 290 287 284 281 280 281 280 278 278 279 280 279 279 280 281 282 283 284 284 284 284
277 281 278 279 279 282 287 286 289 290 289 289 290 290 290 289 289 289 289 289 289 290 288 286 285 283 280 278 277 278 276 276 276 277 276 277 278 279 280 281 282 283 283 283
280 282 279 278 282 281 285 286 288 290 290 291 292 291 291 289 290 289 288 289 290 288 286 284 282 281 280 277 275 273 274 273 272 275 276 277 277 277 279 280 281 281 281 281
281 280 279 279 281 282 284 287 288 289 291 290 291 290 291 291 289 289 288 289 289 287 285 283 281 281 279 276 274 271 271 270 273 275 276 277 278 277 278 278 279 279 281 282
281 280 279 280 284 284 284 287 289 288 288 290 289 288 290 290 289 289 288 289 287 285 284 281 280 278 277 274 273 270 267 267 269 276 276 275 275 276 276 276 277 279 279 281
Wind_Speed
7 4 8 8 10 9 6 5 3 3 3 5 2 5 4 11 16 21 21 22 23 24 24 24 23 19 22 20 18 16 16 16 11 10 10 9 10 7 7 7 11 10 9 11
4 8 5 4 3 5 3 2 4 1 1 4 4 10 5 9 15 20 22 23 25 27 26 25 25 23 22 20 20 19 17 18 13 9 9 9 9 8 8 8 10 12 11 10
5 6 2 2 4 4 5 4 3 4 6 5 10 12 9 5 14 19 21 21 24 27 26 24 24 25 24 20 20 19 17 18 14 13 8 5 5 3 6 7 7 11 14 13
7 2 1 2 2 6 2 2 3 3 5 3 4 5 8 10 16 20 22 23 25 28 25 24 24 22 24 22 18 20 21 16 14 14 9 12 8 7 6 7 8 9 12 11
4 2 2 1 3 5 4 3 2 0 2 4 6 5 7 12 17 21 22 23 24 22 23 25 25 24 26 19 16 18 20 15 11 12 11 9 8 6 4 6 8 7 2 3
5 1 4 4 1 2 3 2 2 2 3 3 3 4 4 8 15 20 22 23 20 22 23 23 24 24 20 17 10 18 14 9 8 10 8 10 10 6 3 6 8 7 7 6
2 2 1 2 3 4 4 5 2 3 3 2 2 6 6 11 15 18 20 21 18 20 22 23 26 24 24 24 10 4 4 2 5 10 10 10 11 11 9 7 7 10 8 10
7 4 1 3 3 4 2 5 3 4 3 4 4 4 4 9 13 16 17 20 18 23 21 22 23 22 23 23 21 17 16 15 15 17 17 16 15 10 8 11 11 8 11 8
5 4 4 3 2 3 3 2 3 0 1 4 2 3 7 10 16 18 19 21 21 20 21 22 22 23 24 25 24 21 19 15 17 16 16 15 14 15 12 15 12 11 11 9
5 5 1 3 2 3 3 4 3 2 3 5 2 4 3 14 18 18 20 20 21 19 19 19 20 21 22 22 23 22 18 20 19 17 14 14 15 15 14 14 16 14 13 13
4 2 4 2 6 4 4 3 3 3 3 3 4 2 4 7 10 13 16 16 18 18 19 16 16 17 18 22 25 22 21 24 22 18 15 16 15 16 15 14 15 10 12 11
3 2 4 2 3 2 3 2 5 4 4 3 3 2 3 5 7 10 13 14 15 16 17 17 15 16 18 19 19 21 24 24 20 17 15 18 16 15 16 16 11 10 12 12
7 4 4 3 3 3 5 7 4 2 1 6 3 2 4 4 7 10 11 13 13 15 17 17 17 16 16 16 17 18 19 19 18 18 18 17 16 15 15 14 12 12 13 13
1 3 4 1 4 3 6 11 10 8 4 3 9 7 8 5 7 9 10 11 12 13 14 15 16 16 16 15 16 14 15 15 14 15 16 17 16 15 14 13 14 14 12 12
3 4 3 2 3 0 2 8 13 14 10 7 2 5 6 3 3 6 7 8 9 11 13 14 14 14 15 15 16 15 13 14 13 14 14 15 14 14 14 14 13 12 12 11
2 2 1 2 1 2 6 11 13 15 14 14 13 12 3 3 0 2 5 6 7 9 10 11 12 13 13 14 13 13 13 14 12 14 13 12 12 12 11 11 11 9 11 10
7 7 4 2 2 3 8 19 19 16 9 15 11 6 6 3 2 1 2 4 4 6 7 9 10 10 10 11 11 12 11 10 11 11 11 10 9 9 8 7 8 10 10 8
6 5 1 2 1 5 3 1 6 18 15 13 3 7 5 1 2 2 1 1 2 4 6 7 7 8 9 9 10 9 9 10 10 10 10 10 9 9 8 7 7 7 6 8
4 5 3 4 4 7 5 7 8 16 13 14 14 8 7 6 3 5 5 3 3 4 4 5 5 6 6 8 8 8 8 8 9 10 10 9 8 7 7 8 8 7 6 6
3 2 1 3 4 6 3 10 5 7 6 18 16 13 12 10 4 3 12 6 3 1 1 2 4 4 6 8 6 6 8 8 10 9 9 9 9 9 9 7 6 5 4 4
5 3 7 4 6 7 5 11 9 6 2 15 16 14 14 9 1 11 12 8 6 3 2 1 1 4 6 7 7 6 6 8 7 7 7 7 8 7 7 6 5 5 4 3
10 9 6 4 5 11 15 9 9 3 8 13 13 13 13 8 10 11 10 8 6 7 5 3 2 0 2 5 6 5 6 7 6 6 6 6 6 5 5 5 5 4 4 3
8 6 6 11 6 3 19 4 5 6 14 11 11 11 12 13 13 12 10 10 9 9 4 3 2 1 1 3 4 3 5 6 7 5 4 4 4 5 5 5 5 3 4 3
8 5 4 2 7 7 15 1 4 7 10 11 10 13 14 14 13 12 11 10 8 5 5 4 2 3 2 1 3 3 5 5 4 4 5 5 4 6 5 4 3 4 5 5
3 13 7 6 4 4 9 11 9 7 7 9 9 12 13 12 12 11 10 8 6 5 4 4 4 2 1 1 2 3 5 5 5 4 4 5 4 5 5 4 3 3 3 4
8 8 9 8 11 5 11 18 12 12 12 12 12 8 7 10 11 10 8 7 5 5 4 3 4 3 3 2 1 1 2 3 4 4 4 4 5 4 4 4 4 1 3 7
Wind_Direction
32 65 61 43 32 55 80 100 121 109 65 306 242 271 355 5 4 359 352 349 344 344 339 335 327 330 323 310 301 287 263 251 206 201 198 199 198 200 218 225 213 218 214 214
77 77 54 32 61 94 99 160 43 161 317 302 288 274 214 360 9 356 351 350 344 342 337 334 330 325 319 310 303 286 263 253 216 197 197 204 190 208 207 212 223 229 230 230
60 86 101 328 133 125 48 18 16 330 307 257 294 251 208 337 3 354 355 351 347 346 333 330 327 322 320 311 303 287 270 259 227 197 189 186 193 188 200 213 217 222 222 223
65 82 112 148 76 308 220 46 345 300 294 332 340 313 169 1 357 356 353 354 352 349 340 332 331 323 318 309 297 283 269 248 242 188 177 190 199 199 195 210 215 218 220 224
93 99 96 65 29 329 46 327 285 266 298 311 169 258 85 11 355 347 350 355 2 347 338 334 329 325 311 303 292 281 261 228 224 179 176 184 201 196 176 213 209 215 137 228
84 59 337 28 58 13 341 239 229 251 245 237 99 343 70 15 345 343 347 355 1 345 338 341 336 327 328 324 287 276 224 202 188 161 175 180 193 186 163 95 85 77 61 38
161 110 115 316 237 189 242 250 241 221 218 321 96 273 58 19 1 346 346 356 357 346 348 350 345 348 352 346 330 225 132 45 122 88 81 80 72 62 75 68 101 109 101 83
176 186 185 4 349 359 9 314 332 301 301 338 111 265 85 22 6 354 356 2 358 352 349 351 350 356 4 358 16 39 52 61 71 73 71 66 62 63 53 48 56 50 73 60
146 129 124 51 343 300 99 251 4 130 62 269 227 182 148 354 1 356 358 5 359 353 349 356 360 3 10 10 13 27 42 52 58 65 68 68 65 63 61 64 43 54 43 66
138 123 173 118 271 109 301 99 222 135 286 279 161 269 300 359 346 348 354 3 355 0 354 4 5 6 12 18 19 21 31 46 47 52 59 64 67 69 65 65 55 41 44 39
153 239 136 183 204 189 165 189 228 317 290 294 305 90 59 355 343 344 350 2 359 2 1 12 8 14 16 21 23 17 29 41 39 37 44 55 55 55 56 58 56 53 52 44
160 106 164 137 116 292 290 247 242 259 170 255 306 303 114 14 357 359 353 360 6 4 8 19 17 18 23 23 28 22 31 36 36 39 39 50 52 57 54 51 54 57 57 46
176 175 135 155 195 193 231 192 227 216 348 221 253 76 170 55 23 21 3 360 12 10 10 20 23 25 24 29 33 34 34 30 37 31 31 39 44 45 52 56 45 41 56 44
163 200 266 282 79 127 191 198 197 215 193 199 239 289 205 35 22 15 7 5 12 23 18 17 24 27 28 34 39 35 35 38 29 40 34 35 37 40 44 48 48 44 40 53
198 209 214 105 78 284 245 195 199 215 222 228 52 265 316 21 16 13 6 3 16 27 28 24 23 22 28 34 39 40 41 41 36 40 41 35 34 38 42 39 37 41 44 41
166 171 132 208 299 253 253 235 220 226 236 243 262 268 14 131 298 9 19 7 17 28 31 32 30 31 28 27 36 40 37 38 32 39 34 28 33 30 34 37 34 38 47 40
160 147 173 186 6 277 264 221 209 216 218 217 232 245 165 202 231 341 6 15 23 33 38 36 35 33 33 37 34 39 40 40 47 48 40 34 34 39 40 48 46 39 43 43
143 130 267 125 224 237 72 56 215 209 216 207 167 170 190 190 115 127 97 23 49 43 49 48 45 43 34 33 42 49 44 45 46 42 37 29 25 30 26 31 52 50 44 49
173 142 129 182 210 311 187 189 183 185 225 210 205 180 154 136 145 203 160 99 85 77 55 47 32 26 33 25 20 32 42 45 41 30 25 21 18 21 19 29 20 27 48 59
126 324 265 175 223 232 75 144 168 176 265 183 189 178 162 148 200 174 157 154 151 169 264 350 352 354 14 6 5 28 32 30 25 14 8 9 8 13 13 11 10 1 32 57
157 159 211 192 244 280 167 153 167 163 172 164 172 166 160 179 69 119 148 162 185 212 229 254 325 6 7 356 353 27 33 30 5 357 4 12 9 5 7 358 10 1 22 56
171 160 181 178 226 257 149 136 196 128 133 151 157 158 167 154 134 146 164 168 184 192 205 204 256 352 12 6 351 12 27 0 359 358 10 8 5 6 2 359 1 4 21 74
205 201 183 203 216 102 176 52 172 157 146 159 157 158 160 156 156 166 180 171 193 216 198 189 257 245 22 16 12 12 19 355 352 347 354 358 358 4 2 6 4 20 17 26
218 164 226 152 205 200 200 56 145 175 158 158 157 158 161 164 163 171 186 192 206 203 203 177 198 241 230 54 33 20 359 354 329 338 354 350 354 352 9 4 10 21 23 18
175 153 172 253 243 173 203 204 182 163 140 148 148 160 168 165 170 177 193 208 202 203 189 175 199 225 195 99 41 24 4 350 341 333 348 2 354 1 349 4 6 3 10 354
191 168 184 214 174 184 195 194 176 165 168 162 155 156 176 175 174 175 197 202 189 188 166 177 198 195 172 173 157 86 8 352 338 329 3 7 345 351 352 349 343 170 341 343